Time,TemperatureF,DewpointF,PressureIn,WindDirection,WindDirectionDegrees,WindSpeedMPH,WindSpeedGustMPH,Humidity,HourlyPrecipIn,Conditions,Clouds,dailyrainin,SoftwareType,DateUTC
2013-10-25 00:00:00,39.8,30.8,29.98,WNW,289,2.0,8.0,70,0.00,,,0.00,Wunderground v.1.15,2013-10-25 04:00:00,
2013-10-25 00:05:00,39.8,30.8,29.98,West,281,3.0,8.0,70,0.00,,,0.00,Wunderground v.1.15,2013-10-25 04:05:00,
2013-10-25 00:10:00,39.9,30.9,29.98,WNW,285,3.0,3.0,70,0.00,,,0.00,Wunderground v.1.15,2013-10-25 04:10:00,
2013-10-25 00:15:00,39.9,30.9,29.98,West,281,3.0,3.0,70,0.00,,,0.00,Wunderground v.1.15,2013-10-25 04:15:00,
2013-10-25 00:20:00,39.9,30.9,29.98,WSW,257,3.0,3.0,70,0.00,,,0.00,Wunderground v.1.15,2013-10-25 04:20:00,
2013-10-25 00:25:00,40.0,31.0,29.98,West,273,2.0,3.0,70,0.00,,,0.00,Wunderground v.1.15,2013-10-25 04:25:00,
2013-10-25 00:35:00,39.8,31.2,29.98,WNW,287,2.0,2.0,71,0.00,,,0.00,Wunderground v.1.15,2013-10-25 04:35:00,
2013-10-25 00:40:00,39.7,31.1,29.98,West,276,2.0,4.0,71,0.00,,,0.00,Wunderground v.1.15,2013-10-25 04:40:00,
2013-10-25 00:45:00,39.7,30.7,29.98,WNW,283,3.0,4.0,70,0.00,,,0.00,Wunderground v.1.15,2013-10-25 04:45:00,
2013-10-25 00:55:00,39.7,31.1,29.98,WNW,297,2.0,3.0,71,0.00,,,0.00,Wunderground v.1.15,2013-10-25 04:55:00,
2013-10-25 01:00:00,39.5,31.2,29.98,WNW,292,2.0,2.0,72,0.00,,,0.00,Wunderground v.1.15,2013-10-25 05:00:00,
2013-10-25 01:10:00,39.2,30.9,29.98,WNW,286,3.0,4.0,72,0.00,,,0.00,Wunderground v.1.15,2013-10-25 05:10:00,
2013-10-25 01:15:00,39.2,31.3,29.98,West,261,3.0,8.0,73,0.00,,,0.00,Wunderground v.1.15,2013-10-25 05:15:00,
2013-10-25 01:25:00,39.2,31.3,29.98,WNW,288,3.0,4.0,73,0.00,,,0.00,Wunderground v.1.15,2013-10-25 05:25:00,
2013-10-25 01:30:00,39.2,31.3,29.98,WNW,300,3.0,3.0,73,0.00,,,0.00,Wunderground v.1.15,2013-10-25 05:30:00,
2013-10-25 01:40:00,39.1,31.2,29.98,West,272,3.0,4.0,73,0.00,,,0.00,Wunderground v.1.15,2013-10-25 05:40:00,
2013-10-25 01:45:00,39.1,31.2,29.98,West,278,3.0,4.0,73,0.00,,,0.00,Wunderground v.1.15,2013-10-25 05:45:00,
2013-10-25 01:55:00,39.0,31.4,29.98,WNW,294,3.0,3.0,74,0.00,,,0.00,Wunderground v.1.15,2013-10-25 05:55:00,
2013-10-25 02:00:00,39.0,31.4,29.98,West,279,3.0,4.0,74,0.00,,,0.00,Wunderground v.1.15,2013-10-25 06:00:00,
2013-10-25 02:10:00,39.0,31.4,29.98,West,271,3.0,3.0,74,0.00,,,0.00,Wunderground v.1.15,2013-10-25 06:10:00,
2013-10-25 02:20:00,38.8,31.2,29.98,West,275,3.0,6.0,74,0.00,,,0.00,Wunderground v.1.15,2013-10-25 06:20:00,
2013-10-25 02:30:00,38.7,31.5,29.98,WNW,298,2.0,2.0,75,0.00,,,0.00,Wunderground v.1.15,2013-10-25 06:30:00,
2013-10-25 02:40:00,38.5,31.3,29.99,WNW,300,3.0,3.0,75,0.00,,,0.00,Wunderground v.1.15,2013-10-25 06:40:00,
2013-10-25 02:50:00,38.2,31.3,29.99,WNW,284,4.0,4.0,76,0.00,,,0.00,Wunderground v.1.15,2013-10-25 06:50:00,
2013-10-25 03:00:00,38.2,31.6,29.99,WNW,286,3.0,3.0,77,0.00,,,0.00,Wunderground v.1.15,2013-10-25 07:00:00,
2013-10-25 03:10:00,38.2,31.9,29.99,WNW,288,3.0,3.0,78,0.00,,,0.00,Wunderground v.1.15,2013-10-25 07:10:00,
2013-10-25 03:15:00,38.1,31.8,29.99,West,278,2.0,3.0,78,0.00,,,0.00,Wunderground v.1.15,2013-10-25 07:15:00,
2013-10-25 03:25:00,37.9,32.0,29.99,West,273,3.0,4.0,79,0.00,,,0.00,Wunderground v.1.15,2013-10-25 07:25:00,
2013-10-25 03:30:00,37.8,31.9,29.99,West,271,3.0,3.0,79,0.00,,,0.00,Wunderground v.1.15,2013-10-25 07:30:00,
2013-10-25 03:40:00,37.7,32.1,29.99,West,278,4.0,4.0,80,0.00,,,0.00,Wunderground v.1.15,2013-10-25 07:40:00,
2013-10-25 03:45:00,37.6,32.0,29.99,WNW,285,4.0,4.0,80,0.00,,,0.00,Wunderground v.1.15,2013-10-25 07:45:00,
2013-10-25 03:55:00,37.4,32.1,29.99,WNW,293,2.0,2.0,81,0.00,,,0.00,Wunderground v.1.15,2013-10-25 07:55:00,
2013-10-25 04:00:00,37.3,32.0,29.99,WNW,296,2.0,2.0,81,0.00,,,0.00,Wunderground v.1.15,2013-10-25 08:00:00,
2013-10-25 04:10:00,37.0,31.7,30.00,West,280,2.0,4.0,81,0.00,,,0.00,Wunderground v.1.15,2013-10-25 08:10:00,
2013-10-25 04:20:00,36.9,31.9,30.00,NW,307,3.0,3.0,82,0.00,,,0.00,Wunderground v.1.15,2013-10-25 08:20:00,
2013-10-25 04:30:00,36.9,31.9,30.00,West,277,2.0,2.0,82,0.00,,,0.00,Wunderground v.1.15,2013-10-25 08:30:00,
2013-10-25 04:35:00,36.9,31.9,30.00,WNW,291,3.0,3.0,82,0.00,,,0.00,Wunderground v.1.15,2013-10-25 08:35:00,
2013-10-25 04:45:00,36.9,31.9,30.01,WNW,290,2.0,4.0,82,0.00,,,0.00,Wunderground v.1.15,2013-10-25 08:45:00,
2013-10-25 04:55:00,36.8,31.8,30.01,West,277,2.0,2.0,82,0.00,,,0.00,Wunderground v.1.15,2013-10-25 08:55:00,
2013-10-25 05:00:00,36.7,32.0,30.01,NW,304,2.0,2.0,83,0.00,,,0.00,Wunderground v.1.15,2013-10-25 09:00:00,
2013-10-25 05:10:00,36.6,31.9,30.01,West,279,3.0,3.0,83,0.00,,,0.00,Wunderground v.1.15,2013-10-25 09:10:00,
2013-10-25 05:20:00,36.8,32.1,30.02,WNW,296,2.0,2.0,83,0.00,,,0.00,Wunderground v.1.15,2013-10-25 09:20:00,
2013-10-25 05:25:00,36.9,32.2,30.01,WNW,289,3.0,3.0,83,0.00,,,0.00,Wunderground v.1.15,2013-10-25 09:25:00,
2013-10-25 05:35:00,37.1,32.4,30.02,WNW,288,2.0,3.0,83,0.00,,,0.00,Wunderground v.1.15,2013-10-25 09:35:00,
2013-10-25 05:45:00,37.1,32.4,30.02,WNW,284,2.0,3.0,83,0.00,,,0.00,Wunderground v.1.15,2013-10-25 09:45:00,
2013-10-25 05:50:00,37.1,32.4,30.03,WNW,284,2.0,2.0,83,0.00,,,0.00,Wunderground v.1.15,2013-10-25 09:50:00,
2013-10-25 06:00:00,37.4,32.7,30.03,West,277,3.0,4.0,83,0.00,,,0.00,Wunderground v.1.15,2013-10-25 10:00:00,
2013-10-25 06:10:00,37.7,33.0,30.02,WNW,285,3.0,3.0,83,0.00,,,0.00,Wunderground v.1.15,2013-10-25 10:10:00,
2013-10-25 06:15:00,37.6,32.9,30.03,WNW,294,2.0,3.0,83,0.00,,,0.00,Wunderground v.1.15,2013-10-25 10:15:00,
2013-10-25 06:25:00,37.5,33.1,30.03,West,280,2.0,3.0,84,0.00,,,0.00,Wunderground v.1.15,2013-10-25 10:25:00,
2013-10-25 06:30:00,37.6,33.2,30.03,WNW,294,2.0,2.0,84,0.00,,,0.00,Wunderground v.1.15,2013-10-25 10:30:00,
2013-10-25 06:40:00,37.8,33.1,30.03,WNW,300,3.0,8.0,83,0.00,,,0.00,Wunderground v.1.15,2013-10-25 10:40:00,
2013-10-25 06:45:00,37.9,33.2,30.03,WNW,282,4.0,8.0,83,0.00,,,0.00,Wunderground v.1.15,2013-10-25 10:45:00,
2013-10-25 06:55:00,38.1,33.1,30.04,West,278,3.0,4.0,82,0.00,,,0.00,Wunderground v.1.15,2013-10-25 10:55:00,
2013-10-25 07:00:00,38.2,33.2,30.04,WNW,286,3.0,3.0,82,0.00,,,0.00,Wunderground v.1.15,2013-10-25 11:00:00,
2013-10-25 07:10:00,38.2,33.2,30.05,WNW,290,2.0,5.0,82,0.00,,,0.00,Wunderground v.1.15,2013-10-25 11:10:00,
2013-10-25 07:20:00,38.1,33.1,30.05,WSW,250,3.0,4.0,82,0.00,,,0.00,Wunderground v.1.15,2013-10-25 11:20:00,
2013-10-25 07:30:00,38.1,33.1,30.05,West,273,3.0,3.0,82,0.00,,,0.00,Wunderground v.1.15,2013-10-25 11:30:00,
2013-10-25 07:35:00,38.2,33.2,30.05,West,271,3.0,4.0,82,0.00,,,0.00,Wunderground v.1.15,2013-10-25 11:35:00,
2013-10-25 07:45:00,38.2,33.2,30.06,WNW,282,4.0,4.0,82,0.00,,,0.00,Wunderground v.1.15,2013-10-25 11:45:00,
2013-10-25 07:50:00,38.2,33.2,30.06,WNW,288,4.0,4.0,82,0.00,,,0.00,Wunderground v.1.15,2013-10-25 11:50:00,
2013-10-25 08:00:00,38.4,33.4,30.07,WNW,289,4.0,4.0,82,0.00,,,0.00,Wunderground v.1.15,2013-10-25 12:00:00,
2013-10-25 08:10:00,38.5,33.5,30.07,NW,310,3.0,3.0,82,0.00,,,0.00,Wunderground v.1.15,2013-10-25 12:10:00,
2013-10-25 08:15:00,38.6,33.6,30.07,West,269,3.0,6.0,82,0.00,,,0.00,Wunderground v.1.15,2013-10-25 12:15:00,
2013-10-25 08:25:00,38.8,33.8,30.08,West,274,3.0,4.0,82,0.00,,,0.00,Wunderground v.1.15,2013-10-25 12:25:00,
2013-10-25 08:35:00,39.0,34.0,30.08,WNW,291,3.0,9.0,82,0.00,,,0.00,Wunderground v.1.15,2013-10-25 12:35:00,
2013-10-25 08:40:00,39.4,34.4,30.09,West,267,5.0,5.0,82,0.00,,,0.00,Wunderground v.1.15,2013-10-25 12:40:00,
2013-10-25 08:50:00,39.9,34.2,30.09,WNW,295,4.0,4.0,80,0.00,,,0.00,Wunderground v.1.15,2013-10-25 12:50:00,
2013-10-25 09:00:00,40.5,34.8,30.09,West,278,5.0,8.0,80,0.00,,,0.00,Wunderground v.1.15,2013-10-25 13:00:00,
2013-10-25 09:10:00,41.0,34.7,30.09,WNW,294,4.0,4.0,78,0.00,,,0.00,Wunderground v.1.15,2013-10-25 13:10:00,
2013-10-25 09:15:00,41.3,34.6,30.09,NW,304,4.0,4.0,77,0.00,,,0.00,Wunderground v.1.15,2013-10-25 13:15:00,
2013-10-25 09:25:00,42.2,34.8,30.10,WNW,285,6.0,7.0,75,0.00,,,0.00,Wunderground v.1.15,2013-10-25 13:25:00,
2013-10-25 09:30:00,42.7,34.6,30.10,WSW,257,8.0,8.0,73,0.00,,,0.00,Wunderground v.1.15,2013-10-25 13:30:00,
2013-10-25 09:40:00,43.6,35.2,30.10,West,269,5.0,16.0,72,0.00,,,0.00,Wunderground v.1.15,2013-10-25 13:40:00,
2013-10-25 09:45:00,44.1,35.3,30.10,WNW,293,4.0,16.0,71,0.00,,,0.00,Wunderground v.1.15,2013-10-25 13:45:00,
2013-10-25 09:55:00,44.5,34.6,30.10,WNW,299,3.0,4.0,68,0.00,,,0.00,Wunderground v.1.15,2013-10-25 13:55:00,
2013-10-25 10:00:00,44.7,34.8,30.10,WNW,296,3.0,3.0,68,0.00,,,0.00,Wunderground v.1.15,2013-10-25 14:00:00,
2013-10-25 10:10:00,44.9,34.2,30.10,West,279,5.0,5.0,66,0.00,,,0.00,Wunderground v.1.15,2013-10-25 14:10:00,
2013-10-25 10:20:00,45.0,34.7,30.10,West,275,3.0,4.0,67,0.00,,,0.00,Wunderground v.1.15,2013-10-25 14:20:00,
2013-10-25 10:30:00,45.3,34.6,30.09,West,275,5.0,9.0,66,0.00,,,0.00,Wunderground v.1.15,2013-10-25 14:30:00,
2013-10-25 10:35:00,45.3,34.2,30.09,WSW,252,5.0,9.0,65,0.00,,,0.00,Wunderground v.1.15,2013-10-25 14:35:00,
2013-10-25 10:45:00,45.5,33.6,30.09,NW,325,5.0,5.0,63,0.00,,,0.00,Wunderground v.1.15,2013-10-25 14:45:00,
2013-10-25 10:50:00,45.7,34.2,30.09,NW,311,5.0,5.0,64,0.00,,,0.00,Wunderground v.1.15,2013-10-25 14:50:00,
2013-10-25 11:00:00,46.3,34.4,30.09,WNW,297,5.0,5.0,63,0.00,,,0.00,Wunderground v.1.15,2013-10-25 15:00:00,
2013-10-25 11:10:00,46.9,34.1,30.10,West,270,5.0,5.0,61,0.00,,,0.00,Wunderground v.1.15,2013-10-25 15:10:00,
2013-10-25 11:15:00,47.2,34.0,30.10,ESE,105,7.0,7.0,60,0.00,,,0.00,Wunderground v.1.15,2013-10-25 15:15:00,
2013-10-25 11:25:00,47.9,34.3,30.10,WNW,287,5.0,18.0,59,0.00,,,0.00,Wunderground v.1.15,2013-10-25 15:25:00,
2013-10-25 11:35:00,48.6,33.6,30.10,WSW,255,9.0,9.0,56,0.00,,,0.00,Wunderground v.1.15,2013-10-25 15:35:00,
2013-10-25 11:40:00,48.8,34.2,30.10,NNE,19,7.0,7.0,57,0.00,,,0.00,Wunderground v.1.15,2013-10-25 15:40:00,
2013-10-25 11:50:00,48.3,34.6,30.11,WNW,288,8.0,8.0,59,0.00,,,0.00,Wunderground v.1.15,2013-10-25 15:50:00,
2013-10-25 12:00:00,48.3,34.2,30.11,North,351,6.0,6.0,58,0.00,,,0.00,Wunderground v.1.15,2013-10-25 16:00:00,
2013-10-25 12:10:00,48.9,35.2,30.10,West,281,4.0,6.0,59,0.00,,,0.00,Wunderground v.1.15,2013-10-25 16:10:00,
2013-10-25 12:15:00,49.0,35.3,30.10,West,261,4.0,9.0,59,0.00,,,0.00,Wunderground v.1.15,2013-10-25 16:15:00,
2013-10-25 12:25:00,49.6,35.4,30.10,NW,311,8.0,8.0,58,0.00,,,0.00,Wunderground v.1.15,2013-10-25 16:25:00,
2013-10-25 12:30:00,49.8,34.3,30.10,West,281,6.0,13.0,55,0.00,,,0.00,Wunderground v.1.15,2013-10-25 16:30:00,
2013-10-25 12:40:00,50.8,35.7,30.09,West,265,6.0,6.0,56,0.00,,,0.00,Wunderground v.1.15,2013-10-25 16:40:00,
2013-10-25 12:45:00,50.8,35.2,30.09,WNW,282,6.0,9.0,55,0.00,,,0.00,Wunderground v.1.15,2013-10-25 16:45:00,
2013-10-25 12:55:00,49.9,35.3,30.09,NW,305,6.0,7.0,57,0.00,,,0.00,Wunderground v.1.15,2013-10-25 16:55:00,
2013-10-25 13:00:00,50.0,35.4,30.10,NW,312,7.0,7.0,57,0.00,,,0.00,Wunderground v.1.15,2013-10-25 17:00:00,
2013-10-25 13:10:00,50.4,35.7,30.09,WSW,254,6.0,9.0,57,0.00,,,0.00,Wunderground v.1.15,2013-10-25 17:10:00,
2013-10-25 13:20:00,50.1,34.1,30.09,North,5,5.0,5.0,54,0.00,,,0.00,Wunderground v.1.15,2013-10-25 17:20:00,
2013-10-25 13:25:00,49.7,34.6,30.09,West,279,5.0,6.0,56,0.00,,,0.00,Wunderground v.1.15,2013-10-25 17:25:00,
2013-10-25 13:35:00,49.6,35.0,30.09,WSW,252,6.0,12.0,57,0.00,,,0.00,Wunderground v.1.15,2013-10-25 17:35:00,
2013-10-25 13:40:00,49.5,35.3,30.09,WNW,297,7.0,7.0,58,0.00,,,0.00,Wunderground v.1.15,2013-10-25 17:40:00,
2013-10-25 13:50:00,50.4,35.7,30.09,NW,325,6.0,6.0,57,0.00,,,0.00,Wunderground v.1.15,2013-10-25 17:50:00,
2013-10-25 14:00:00,50.3,34.7,30.09,NW,317,4.0,6.0,55,0.00,,,0.00,Wunderground v.1.15,2013-10-25 18:00:00,
2013-10-25 14:10:00,49.7,34.2,30.09,WSW,251,6.0,6.0,55,0.00,,,0.00,Wunderground v.1.15,2013-10-25 18:10:00,
2013-10-25 14:15:00,49.7,34.2,30.09,West,281,6.0,12.0,55,0.00,,,0.00,Wunderground v.1.15,2013-10-25 18:15:00,
2013-10-25 14:25:00,50.5,34.9,30.09,WNW,290,3.0,6.0,55,0.00,,,0.00,Wunderground v.1.15,2013-10-25 18:25:00,
2013-10-25 14:30:00,50.4,33.4,30.09,NNE,19,4.0,4.0,52,0.00,,,0.00,Wunderground v.1.15,2013-10-25 18:30:00,
2013-10-25 14:40:00,50.0,34.5,30.09,NW,305,4.0,8.0,55,0.00,,,0.00,Wunderground v.1.15,2013-10-25 18:40:00,
2013-10-25 14:50:00,49.8,34.3,30.09,West,278,4.0,4.0,55,0.00,,,0.00,Wunderground v.1.15,2013-10-25 18:50:00,
2013-10-25 14:55:00,49.8,34.7,30.09,North,355,4.0,6.0,56,0.00,,,0.00,Wunderground v.1.15,2013-10-25 18:55:00,
2013-10-25 15:00:00,49.8,34.3,30.09,West,277,5.0,8.0,55,0.00,,,0.00,Wunderground v.1.15,2013-10-25 19:00:00,
2013-10-25 15:10:00,49.9,35.3,30.09,WNW,291,7.0,7.0,57,0.00,,,0.00,Wunderground v.1.15,2013-10-25 19:10:00,
2013-10-25 15:20:00,50.5,34.0,30.09,WNW,282,5.0,5.0,53,0.00,,,0.00,Wunderground v.1.15,2013-10-25 19:20:00,
2013-10-25 15:30:00,51.2,33.7,30.09,WNW,285,6.0,6.0,51,0.00,,,0.00,Wunderground v.1.15,2013-10-25 19:30:00,
2013-10-25 15:40:00,51.7,34.1,30.09,West,275,6.0,13.0,51,0.00,,,0.00,Wunderground v.1.15,2013-10-25 19:40:00,
2013-10-25 15:50:00,52.2,34.6,30.09,West,266,7.0,8.0,51,0.00,,,0.00,Wunderground v.1.15,2013-10-25 19:50:00,
2013-10-25 16:00:00,51.4,33.9,30.10,WSW,242,6.0,6.0,51,0.00,,,0.00,Wunderground v.1.15,2013-10-25 20:00:00,
2013-10-25 16:10:00,51.0,34.0,30.10,NW,307,6.0,8.0,52,0.00,,,0.00,Wunderground v.1.15,2013-10-25 20:10:00,
2013-10-25 16:15:00,51.0,34.0,30.10,NW,321,5.0,13.0,52,0.00,,,0.00,Wunderground v.1.15,2013-10-25 20:15:00,
2013-10-25 16:25:00,50.4,32.9,30.10,NW,320,6.0,6.0,51,0.00,,,0.00,Wunderground v.1.15,2013-10-25 20:25:00,
2013-10-25 16:30:00,49.9,33.0,30.10,NW,304,7.0,7.0,52,0.00,,,0.00,Wunderground v.1.15,2013-10-25 20:30:00,
2013-10-25 16:40:00,49.6,33.2,30.10,NNW,334,7.0,7.0,53,0.00,,,0.00,Wunderground v.1.15,2013-10-25 20:40:00,
2013-10-25 16:45:00,49.5,33.5,30.10,West,277,7.0,7.0,54,0.00,,,0.00,Wunderground v.1.15,2013-10-25 20:45:00,
2013-10-25 16:55:00,49.3,33.3,30.10,West,259,5.0,6.0,54,0.00,,,0.00,Wunderground v.1.15,2013-10-25 20:55:00,
2013-10-25 17:00:00,49.3,33.3,30.10,WNW,287,4.0,4.0,54,0.00,,,0.00,Wunderground v.1.15,2013-10-25 21:00:00,
2013-10-25 17:10:00,49.0,33.5,30.10,WNW,288,4.0,10.0,55,0.00,,,0.00,Wunderground v.1.15,2013-10-25 21:10:00,
2013-10-25 17:20:00,48.8,33.8,30.11,NW,307,3.0,3.0,56,0.00,,,0.00,Wunderground v.1.15,2013-10-25 21:20:00,
2013-10-25 17:25:00,48.6,33.1,30.10,WNW,282,2.0,6.0,55,0.00,,,0.00,Wunderground v.1.15,2013-10-25 21:25:00,
2013-10-25 17:35:00,48.4,33.4,30.11,WNW,302,3.0,3.0,56,0.00,,,0.00,Wunderground v.1.15,2013-10-25 21:35:00,
2013-10-25 17:45:00,47.9,32.9,30.11,WNW,297,2.0,2.0,56,0.00,,,0.00,Wunderground v.1.15,2013-10-25 21:45:00,
2013-10-25 17:50:00,47.7,33.6,30.11,WNW,286,2.0,2.0,58,0.00,,,0.00,Wunderground v.1.15,2013-10-25 21:50:00,
2013-10-25 18:00:00,47.2,32.7,30.11,WNW,282,2.0,2.0,57,0.00,,,0.00,Wunderground v.1.15,2013-10-25 22:00:00,
2013-10-25 18:10:00,46.8,32.4,30.12,WNW,294,2.0,2.0,57,0.00,,,0.00,Wunderground v.1.15,2013-10-25 22:10:00,
2013-10-25 18:15:00,46.6,33.0,30.12,WNW,294,2.0,2.0,59,0.00,,,0.00,Wunderground v.1.15,2013-10-25 22:15:00,
2013-10-25 18:25:00,45.9,32.8,30.13,WNW,296,3.0,3.0,60,0.00,,,0.00,Wunderground v.1.15,2013-10-25 22:25:00,
2013-10-25 18:35:00,45.5,32.4,30.13,WNW,294,3.0,3.0,60,0.00,,,0.00,Wunderground v.1.15,2013-10-25 22:35:00,
2013-10-25 18:40:00,45.3,32.6,30.13,WNW,294,2.0,2.0,61,0.00,,,0.00,Wunderground v.1.15,2013-10-25 22:40:00,
2013-10-25 18:50:00,44.8,33.0,30.14,WNW,294,1.0,1.0,63,0.00,,,0.00,Wunderground v.1.15,2013-10-25 22:50:00,
2013-10-25 18:55:00,44.4,33.4,30.14,WNW,294,0.0,1.0,65,0.00,,,0.00,Wunderground v.1.15,2013-10-25 22:55:00,
2013-10-25 19:00:00,44.0,33.4,30.14,WNW,294,0.0,0.0,66,0.00,,,0.00,Wunderground v.1.15,2013-10-25 23:00:00,
2013-10-25 19:10:00,43.4,33.2,30.15,WNW,294,1.0,1.0,67,0.00,,,0.00,Wunderground v.1.15,2013-10-25 23:10:00,
2013-10-25 19:15:00,43.1,32.9,30.15,WNW,294,1.0,1.0,67,0.00,,,0.00,Wunderground v.1.15,2013-10-25 23:15:00,
2013-10-25 19:25:00,45.5,30.7,30.15,NW,307,1.0,2.0,56,0.00,,,0.00,Wunderground v.1.15,2013-10-25 23:25:00,
2013-10-25 19:30:00,45.5,31.1,30.15,WNW,289,2.0,2.0,57,0.00,,,0.00,Wunderground v.1.15,2013-10-25 23:30:00,
2013-10-25 19:40:00,45.5,31.1,30.16,WNW,292,1.0,1.0,57,0.00,,,0.00,Wunderground v.1.15,2013-10-25 23:40:00,
2013-10-25 19:45:00,45.4,31.0,30.16,West,259,1.0,1.0,57,0.00,,,0.00,Wunderground v.1.15,2013-10-25 23:45:00,
2013-10-25 19:55:00,45.2,30.4,30.16,West,259,0.0,0.0,56,0.00,,,0.00,Wunderground v.1.15,2013-10-25 23:55:00,
2013-10-25 20:00:00,45.2,30.4,30.16,WNW,294,0.0,0.0,56,0.00,,,0.00,Wunderground v.1.15,2013-10-26 00:00:00,
2013-10-25 20:10:00,44.4,31.4,30.16,WNW,294,0.0,0.0,60,0.00,,,0.00,Wunderground v.1.15,2013-10-26 00:10:00,
2013-10-25 20:15:00,43.3,31.5,30.16,WNW,294,0.0,0.0,63,0.00,,,0.00,Wunderground v.1.15,2013-10-26 00:15:00,
2013-10-25 20:25:00,41.9,31.4,30.16,WNW,294,0.0,0.0,66,0.00,,,0.00,Wunderground v.1.15,2013-10-26 00:25:00,
2013-10-25 20:35:00,41.0,31.6,30.17,WNW,294,0.0,0.0,69,0.00,,,0.00,Wunderground v.1.15,2013-10-26 00:35:00,
2013-10-25 20:40:00,40.4,31.7,30.17,WNW,294,0.0,0.0,71,0.00,,,0.00,Wunderground v.1.15,2013-10-26 00:40:00,
2013-10-25 20:50:00,39.3,31.4,30.17,WNW,294,0.0,0.0,73,0.00,,,0.00,Wunderground v.1.15,2013-10-26 00:50:00,
2013-10-25 20:55:00,39.1,31.5,30.17,WNW,294,0.0,0.0,74,0.00,,,0.00,Wunderground v.1.15,2013-10-26 00:55:00,
2013-10-25 21:00:00,38.7,31.5,30.18,WNW,294,0.0,0.0,75,0.00,,,0.00,Wunderground v.1.15,2013-10-26 01:00:00,
2013-10-25 21:10:00,38.2,31.6,30.18,WNW,294,0.0,0.0,77,0.00,,,0.00,Wunderground v.1.15,2013-10-26 01:10:00,
2013-10-25 21:15:00,37.8,31.6,30.18,WNW,294,0.0,0.0,78,0.00,,,0.00,Wunderground v.1.15,2013-10-26 01:15:00,
2013-10-25 21:25:00,37.3,31.7,30.18,WNW,294,0.0,0.0,80,0.00,,,0.00,Wunderground v.1.15,2013-10-26 01:25:00,
2013-10-25 21:35:00,36.7,31.7,30.19,WNW,294,0.0,1.0,82,0.00,,,0.00,Wunderground v.1.15,2013-10-26 01:35:00,
2013-10-25 21:40:00,36.4,31.4,30.19,WNW,294,0.0,0.0,82,0.00,,,0.00,Wunderground v.1.15,2013-10-26 01:40:00,
2013-10-25 21:50:00,36.1,31.7,30.20,WNW,294,0.0,0.0,84,0.00,,,0.00,Wunderground v.1.15,2013-10-26 01:50:00,
2013-10-25 22:00:00,36.2,31.8,30.20,WNW,294,0.0,0.0,84,0.00,,,0.00,Wunderground v.1.15,2013-10-26 02:00:00,
2013-10-25 22:10:00,35.6,31.2,30.20,WNW,294,0.0,0.0,84,0.00,,,0.00,Wunderground v.1.15,2013-10-26 02:10:00,
2013-10-25 22:20:00,35.4,31.6,30.20,WNW,294,0.0,0.0,86,0.00,,,0.00,Wunderground v.1.15,2013-10-26 02:20:00,
2013-10-25 22:30:00,35.4,31.6,30.20,WNW,294,0.0,0.0,86,0.00,,,0.00,Wunderground v.1.15,2013-10-26 02:30:00,
2013-10-25 22:40:00,35.2,31.7,30.20,WNW,294,0.0,0.0,87,0.00,,,0.00,Wunderground v.1.15,2013-10-26 02:40:00,
2013-10-25 22:45:00,35.2,31.7,30.20,WNW,286,0.0,0.0,87,0.00,,,0.00,Wunderground v.1.15,2013-10-26 02:45:00,
2013-10-25 22:55:00,35.7,31.9,30.20,West,281,0.0,0.0,86,0.00,,,0.00,Wunderground v.1.15,2013-10-26 02:55:00,
2013-10-25 23:00:00,35.7,31.9,30.20,West,279,0.0,0.0,86,0.00,,,0.00,Wunderground v.1.15,2013-10-26 03:00:00,
2013-10-25 23:10:00,35.4,31.9,30.21,West,279,0.0,0.0,87,0.00,,,0.00,Wunderground v.1.15,2013-10-26 03:10:00,
2013-10-25 23:15:00,35.1,31.6,30.20,West,279,0.0,0.0,87,0.00,,,0.00,Wunderground v.1.15,2013-10-26 03:15:00,
2013-10-25 23:25:00,34.8,31.6,30.20,West,279,0.0,0.0,88,0.00,,,0.00,Wunderground v.1.15,2013-10-26 03:25:00,
2013-10-25 23:35:00,34.6,31.4,30.19,West,279,0.0,0.0,88,0.00,,,0.00,Wunderground v.1.15,2013-10-26 03:35:00,
2013-10-25 23:45:00,34.5,31.3,30.20,West,279,0.0,0.0,88,0.00,,,0.00,Wunderground v.1.15,2013-10-26 03:45:00,
2013-10-25 23:50:00,34.4,31.5,30.20,West,279,0.0,0.0,89,0.00,,,0.00,Wunderground v.1.15,2013-10-26 03:50:00,